Weather History for Cape Girardeau, MO

Change the Weather History Date:

Tuesday, December 4, 2012

  Actual Average Record
Temperature  
Mean Temperature 51 °F 39 °F  
Max Temperature 65 °F 48 °F 68 °F (2001)
Min Temperature 37 °F 30 °F 15 °F (2006)
Degree Days  
Heating Degree Days 14 26  
Month to date heating degree days 22 102  
Since 1 July heating degree days 961 953  
Cooling Degree Days 0 0  
Month to date cooling degree days 0 0  
Year to date cooling degree days 1784 1453  
Growing Degree Days 2 (Base 50)    
Moisture  
Dew Point 54 °F    
Average Humidity 87    
Maximum Humidity 100    
Minimum Humidity 73    
Precipitation  
Precipitation 0.10 in 0.15 in 2.08 in (2011)
Month to date precipitation 0.14 0.60  
Year to date precipitation 25.42 43.16  
Sea Level Pressure  
Sea Level Pressure 30.11 in    
Wind  
Wind Speed 10 mph (WNW)    
Max Wind Speed 18 mph    
Max Gust Speed 25 mph    
Visibility 9 miles    
Events Rain    
T = Trace of Precipitation, MM = Missing Value Source: NWS Daily Summary

Daily Weather History Graph

Daily Weather History Graph

Search for Another Location

Airport:

Trip Planner

Search our weather history database for the weather conditions in past years. The results will help you decide how hot, cold, wet, or windy it might be!

Date:

Astronomy

Dec. 04, 2012 Rise Set
Actual Time 6:56 AM CST 4:40 PM CST
Civil Twilight 6:27 AM CST 5:09 PM CST
Nautical Twilight 5:55 AM CST 5:41 PM CST
Astronomical Twilight 5:23 AM CST 6:13 PM CST
Moon 10:22 PM CST (12/4) 10:55 AM CST (12/4)
Length of Visible Light 10h 41m
Length of Day
9h 44m
Waning Gibbous, 69% of the Moon is Illuminated
Dec 4
Waning Gibbous
Dec 6
Last Quarter
Dec 13
New
Dec 19
First Quarter
Dec 28
Full

Hourly Weather History & Observations

Time (CST) Temp. Windchill Dew Point Humidity Pressure Visibility Wind Dir Wind Speed Gust Speed Precip Events Conditions
12:53 AM 64.0 °F - 55.0 °F 73% 30.02 in 10.0 mi South 13.8 mph - N/A   Mostly Cloudy
1:53 AM 63.0 °F - 55.9 °F 78% 30.02 in 10.0 mi South 13.8 mph - N/A   Overcast
2:51 AM 64.4 °F - 55.4 °F 73% 30.02 in 10.0 mi South 13.8 mph 21.9 mph N/A   Mostly Cloudy
2:53 AM 64.0 °F - 55.9 °F 75% 30.01 in 10.0 mi South 13.8 mph 21.9 mph N/A   Mostly Cloudy
3:53 AM 64.0 °F - 57.0 °F 78% 30.01 in 10.0 mi South 12.7 mph - N/A   Overcast
4:53 AM 63.0 °F - 57.9 °F 84% 30.00 in 10.0 mi South 17.3 mph - N/A   Mostly Cloudy
5:06 AM 62.6 °F - 57.2 °F 82% 30.01 in 10.0 mi SSW 15.0 mph - N/A   Scattered Clouds
5:50 AM 64.4 °F - 59.0 °F 83% 30.02 in 10.0 mi SSW 15.0 mph 20.7 mph N/A   Overcast
5:53 AM 64.0 °F - 59.0 °F 84% 30.02 in 10.0 mi South 12.7 mph - N/A   Overcast
6:28 AM 64.4 °F - 59.0 °F 83% 30.03 in 10.0 mi South 17.3 mph 23.0 mph 0.00 in Rain Light Rain
6:53 AM 64.0 °F - 59.0 °F 84% 30.03 in 10.0 mi SSW 15.0 mph 20.7 mph 0.00 in   Overcast
7:27 AM 64.4 °F - 60.8 °F 88% 30.05 in 10.0 mi WSW 10.4 mph - N/A   Overcast
7:44 AM 62.6 °F - 60.8 °F 94% 30.06 in 10.0 mi West 10.4 mph - N/A   Overcast
7:53 AM 62.1 °F - 60.1 °F 93% 30.06 in 10.0 mi West 6.9 mph - 0.00 in Rain Light Rain
8:41 AM 60.8 °F - 60.8 °F 100% 30.08 in 4.0 mi Calm Calm - 0.02 in Rain Rain
8:53 AM 61.0 °F - 60.1 °F 97% 30.07 in 6.0 mi West 3.5 mph - 0.02 in Rain Light Rain
9:10 AM 60.8 °F - 60.8 °F 100% 30.09 in 5.0 mi WSW 5.8 mph - 0.00 in Rain Light Rain
9:19 AM 60.8 °F - 60.8 °F 100% 30.10 in 3.0 mi WSW 5.8 mph - 0.00 in Rain Light Rain
9:28 AM 60.8 °F - 60.8 °F 100% 30.09 in 2.0 mi NW 4.6 mph - 0.03 in Rain Rain
9:31 AM 60.8 °F - 60.8 °F 100% 30.09 in 1.8 mi WNW 5.8 mph - 0.04 in Rain Rain
9:39 AM 60.8 °F - 60.8 °F 100% 30.11 in 2.0 mi Calm Calm - 0.05 in Rain Rain
9:53 AM 62.1 °F - 60.1 °F 93% 30.09 in 3.0 mi North 8.1 mph - 0.07 in Rain Rain
10:07 AM 62.6 °F - 60.8 °F 94% 30.09 in 7.0 mi North 6.9 mph - 0.01 in Rain Light Rain
10:17 AM 62.6 °F - 60.8 °F 94% 30.11 in 10.0 mi NW 11.5 mph - 0.01 in Rain Light Rain
10:28 AM 59.0 °F - 55.4 °F 88% 30.08 in 10.0 mi NNE 16.1 mph 20.7 mph 0.01 in Rain Light Rain
10:39 AM 57.2 °F - 55.4 °F 94% 30.09 in 10.0 mi North 13.8 mph - 0.01 in   Overcast
10:53 AM 57.0 °F - 55.0 °F 93% 30.10 in 10.0 mi NNW 12.7 mph - 0.01 in   Overcast
11:53 AM 53.6 °F - 51.8 °F 94% 30.11 in 6.0 mi North 11.5 mph - N/A Rain Light Rain
12:53 PM 54.0 °F - 51.1 °F 90% 30.10 in 10.0 mi North 8.1 mph - 0.00 in   Overcast
1:24 PM 53.6 °F - 50.0 °F 88% 30.12 in 10.0 mi North 9.2 mph - N/A   Overcast
1:53 PM 53.1 °F - 50.0 °F 89% 30.11 in 10.0 mi North 11.5 mph - N/A   Overcast
2:28 PM 53.6 °F - 48.2 °F 82% 30.14 in 10.0 mi NNW 9.2 mph - N/A   Overcast
2:53 PM 53.1 °F - 48.9 °F 86% 30.14 in 10.0 mi North 12.7 mph - N/A   Overcast
3:53 PM 53.1 °F - 48.0 °F 83% 30.18 in 10.0 mi North 10.4 mph - N/A   Mostly Cloudy
4:53 PM 53.6 °F - 46.4 °F 77% 30.19 in 10.0 mi North 8.1 mph - N/A   Overcast
5:53 PM 52.0 °F - 44.1 °F 74% 30.20 in 10.0 mi North 8.1 mph - N/A   Scattered Clouds
6:53 PM 50.0 °F - 43.0 °F 77% 30.24 in 10.0 mi North 6.9 mph - N/A   Clear
7:53 PM 48.9 °F - 41.0 °F 74% 30.26 in 10.0 mi NNE 4.6 mph - N/A   Clear
8:53 PM 45.0 °F 41.2 °F 39.0 °F 80% 30.26 in 10.0 mi North 6.9 mph - N/A   Clear
9:53 PM 42.1 °F - 37.0 °F 82% 30.27 in 10.0 mi Calm Calm - N/A   Clear
10:53 PM 39.9 °F 37.8 °F 37.0 °F 89% 30.30 in 10.0 mi West 3.5 mph - N/A   Clear
11:53 PM 37.9 °F - 36.0 °F 93% 30.30 in 10.0 mi Calm Calm - N/A   Clear